STARLINK-1255 (45399 NORAD) Tracking and Keplerian Element Data

This shows tracking and keplerian element data for the satellite.

Feedback or suggestion? Click here.




ElementValue
Catalog45399
NameSTARLINK-1255
Epoch Orbit1093
Epoch Day145.33334491
Epoch Year2020
RAAN287.2544
Inclination52.9993
Eccentricity0.0001136
Argument of Perigee21.7889
Mean Anonmoly49.9558
Mean Motion15.62753879
Decay Rate0.00047725
L11 45399U 20019AR 20145.33334491 .00047725 00000-0 52396-3 0 9997
L22 45399 52.9993 287.2544 0001136 21.7889 49.9558 15.62753879 10933

Live tracking and technical data element details for STARLINK-1255 (NORAD 45399). STARLINK-1255 can be tracked NOW for your location showing map with azimuth and elevation plus other details from your city location.

Track the satellite on the map from your city or location and see movement details for azimuth, elevation, latitude, longitude, range, height, and movement on the map or in text.







IsCatalogInMostPopularTable: catalog: 45399, numindb: 17
Update: records affected: 1



GetName: 45399 STARLINK-1255

Hit Count: updated at: Tue, 26 May 2020 04:27:15 GMT